This is the latest recevied weather packets stored in our database for station/object KE8KMM. If no packets are shown the sender has not sent any weather packets the latest 10 day(s).
| Time | Temp. | Humidity | Pressure | Rain* | Wind** | Luminosity | Snow |
|---|---|---|---|---|---|---|---|
| 1777835881 | 16.11° C | 44% | 1014.1 hPa | 0 mm | - | 621 W/m² | - |
| 1777835578 | 16.11° C | 46% | 1014.2 hPa | 0 mm | - | 567 W/m² | - |
| 1777835274 | 16.11° C | 47% | 1014.2 hPa | 0 mm | - | 619 W/m² | - |
| 1777834971 | 16.11° C | 46% | 1014.4 hPa | 0 mm | - | 660 W/m² | - |
| 1777834668 | 15.56° C | 45% | 1014.5 hPa | 0 mm | - | 704 W/m² | - |
| 1777834364 | 15.56° C | 46% | 1014.6 hPa | 0 mm | - | 509 W/m² | - |
| 1777834059 | 15.56° C | 48% | 1014.6 hPa | 0 mm | - | 749 W/m² | - |
| 1777833755 | 15.56° C | 48% | 1014.6 hPa | 0 mm | - | 672 W/m² | - |
| 1777833452 | 15.56° C | 47% | 1014.9 hPa | 0 mm | - | 706 W/m² | - |
| 1777833149 | 15.56° C | 47% | 1014.8 hPa | 0 mm | - | 336 W/m² | - |
| 1777832847 | 15.56° C | 48% | 1014.9 hPa | 0 mm | - | 704 W/m² | - |
| 1777832546 | 14.44° C | 48% | 1014.9 hPa | 0 mm | - | 523 W/m² | - |
| 1777832242 | 15° C | 49% | 1014.8 hPa | 0 mm | - | 231 W/m² | - |
| 1777831939 | 16.11° C | 45% | 1014.9 hPa | 0 mm | - | 235 W/m² | - |
| 1777831635 | 15° C | 55% | 1015.1 hPa | 0 mm | - | 755 W/m² | - |
| 1777831334 | 14.44° C | 50% | 1015 hPa | 0 mm | - | 201 W/m² | - |
| 1777831030 | 13.89° C | 52% | 1015.2 hPa | 0 mm | - | 346 W/m² | - |
| 1777830728 | 14.44° C | 48% | 1015.2 hPa | 0 mm | - | 225 W/m² | - |
| 1777830424 | 14.44° C | 47% | 1015.5 hPa | 0 mm | - | 237 W/m² | - |
| 1777830122 | 15° C | 47% | 1015.2 hPa | 0 mm | - | 802 W/m² | - |
| 1777829817 | 14.44° C | 46% | 1015.2 hPa | 0 mm | - | 219 W/m² | - |
| 1777829513 | 15° C | 50% | 1015.2 hPa | 0 mm | - | 218 W/m² | - |
| 1777829210 | 15.56° C | 49% | 1015.4 hPa | 0 mm | - | 153 W/m² | - |
| 1777828907 | 14.44° C | 46% | 1015.2 hPa | 0 mm | - | 745 W/m² | - |
| 1777828603 | 15° C | 48% | 1015.4 hPa | 0 mm | - | 753 W/m² | - |
* Rain latest hour (hover to see other rain measurements)
** Current wind speed in m/s (hover to see current wind gust speed)